Location: Fours
(44.3167°N, 6.7000°E)
Time: 05:54:03
(UTC+00:00)

Cosmos 2218 Rocket - Pass Details

Date: 06 June 2022
Orbit: 956 x 1005 km, 82.9° (Epoch: 03 July)

Event Time Altitude Azimuth Distance (km) Brightness Sun altitude
Rises 01:22:28 0° 353° (N) 3,694 8.0 -18.4°
Reaches altitude 10° 01:25:00 10° 355° (N) 2,749 7.2 -18.2°
Maximum altitude 01:31:19 77° 81° (E) 1,021 4.1 -17.7°
Enters shadow 01:36:42 15° 167° (SSE) 2,408 5.6 -17.2°
